USA 164 (MILSTAR-2 3)

Last updated on Thu Jul 03 2025 00:02:44 GMT+0000 (Coordinated Universal Time)

1 27168U 02001A 25182.78500218 .00000096 00000+0 00000+0 0 9999 2 27168 10.7594 23.9178 0099574 8.1444 189.5179 1.00272582 29443
UTC large
Height (km)
Speed (km/s)
/
Latitude / Longitude
Inclination (degrees)
Orbital Period (minutes)
Azimuth
Elevation
Range (km)
Doppler Factor

Next 0 passes for location: London (51.5072 / 0.1276)

Sorry there are no passes over London.